Date String (YYYY-MM-DD hh:mm:ss) UTC,Instrument flags,Ambient pressure (hPa),Sample flow (lpm),Bypass flow (lpm),Sample temperature (°C),Ambient temperature (°C),ASC tube jacket temperature (°C),LED temperature (°C),Box temperature (°C),Sample RH (%),Span deviation,Mass concentration (μg/m³),Mass concentration (μg/m³),Mass concentration (μg/m³)
DateTimeUTC,F1_M11,P_M11,Q1_M11,Q2_M11,T1_M11,T2_M11,T3_M11,T4_M11,T5_M11,U1_M11,ZSPAN_M11,X0_M11,X2_M11,X1_M11
2022-05-24 02:00:00,,0825.9,5.01,0.00,29.4,28.2,00.0,38.4,31.1,15.6,0000.0,0006.69,0003.11,0002.37
2022-05-24 02:01:00,,0826.0,5.00,0.00,29.4,28.2,00.0,38.4,31.1,15.8,0000.0,0006.42,0003.07,0002.38
2022-05-24 02:02:00,,0825.9,5.00,0.00,29.4,28.2,00.0,38.4,31.1,15.8,0000.0,0006.40,0003.09,0002.39
2022-05-24 02:03:00,,0826.0,5.00,0.00,29.4,28.2,00.0,38.4,31.1,15.9,0000.0,0006.25,0003.06,0002.38
2022-05-24 02:04:00,,0825.9,5.00,0.00,29.4,28.2,00.0,38.4,31.1,16.0,0000.0,0005.80,0003.04,0002.40
2022-05-24 02:05:00,,0826.0,5.02,0.00,29.4,28.2,00.0,38.4,31.1,15.9,0000.0,0005.86,0003.12,0002.41
2022-05-24 02:06:00,,0826.0,5.00,0.00,29.4,28.2,00.0,38.4,31.1,15.9,0000.0,0005.78,0003.12,0002.43
2022-05-24 02:07:00,,0826.0,5.00,0.00,29.4,28.2,00.0,38.4,31.1,16.0,0000.0,0005.34,0003.11,0002.46
2022-05-24 02:08:00,,0826.0,4.99,0.00,29.3,28.2,00.0,38.4,31.1,16.0,0000.0,0005.99,0003.18,0002.49
2022-05-24 02:09:00,,0826.0,4.99,0.00,29.3,28.2,00.0,38.4,31.1,15.9,0000.0,0006.90,0003.26,0002.50
2022-05-24 02:10:00,,0826.0,5.01,0.00,29.3,28.2,00.0,38.4,31.1,15.9,0000.0,0008.07,0003.30,0002.51
2022-05-24 02:11:00,,0826.0,4.99,0.00,29.3,28.2,00.0,38.4,31.1,15.9,0000.0,0007.70,0003.29,0002.53
2022-05-24 02:12:00,,0826.0,5.00,0.00,29.3,28.2,00.0,38.3,31.1,16.0,0000.0,0007.67,0003.28,0002.54
2022-05-24 02:13:00,,0826.1,5.00,0.00,29.3,28.2,00.0,38.3,31.1,15.9,0000.0,0007.73,0003.30,0002.55
2022-05-24 02:14:00,,0826.0,5.00,0.00,29.3,28.2,00.0,38.3,31.1,16.0,0000.0,0007.93,0003.36,0002.58
2022-05-24 02:15:00,,0826.0,4.98,0.00,29.3,28.2,00.0,38.3,31.0,16.0,0000.0,0008.00,0003.41,0002.60
2022-05-24 02:16:00,,0826.1,5.01,0.00,29.3,28.2,00.0,38.3,31.0,16.1,0000.0,0007.96,0003.40,0002.62
2022-05-24 02:17:00,,0826.1,5.00,0.00,29.3,28.2,00.0,38.3,31.1,16.2,0000.0,0008.09,0003.40,0002.63
2022-05-24 02:18:00,,0826.1,5.00,0.00,29.3,28.2,00.0,38.3,31.1,16.0,0000.0,0008.31,0003.41,0002.64
2022-05-24 02:19:00,,0826.1,5.01,0.00,29.3,28.2,00.0,38.3,31.0,16.0,0000.0,0008.12,0003.40,0002.68
2022-05-24 02:20:00,,0826.1,5.00,0.00,29.3,28.2,00.0,38.3,31.1,16.2,0000.0,0008.10,0003.36,0002.70
2022-05-24 02:21:00,,0826.1,5.00,0.00,29.3,28.2,00.0,38.3,31.1,16.2,0000.0,0007.05,0003.33,0002.73
2022-05-24 02:22:00,,0826.1,5.00,0.00,29.3,28.2,00.0,38.3,31.0,16.3,0000.0,0007.10,0003.36,0002.78
2022-05-24 02:23:00,,0826.1,5.00,0.00,29.3,28.2,00.0,38.3,31.0,16.3,0000.0,0007.20,0003.43,0002.84
2022-05-24 02:24:00,,0826.1,4.99,0.00,29.3,28.2,00.0,38.3,31.0,16.3,0000.0,0007.13,0003.44,0002.89
2022-05-24 02:25:00,,0826.2,5.00,0.00,29.3,28.2,00.0,38.3,31.0,16.3,0000.0,0007.59,0003.44,0002.94
2022-05-24 02:26:00,,0826.2,5.00,0.00,29.3,28.2,00.0,38.3,31.0,16.4,0000.0,0007.60,0003.44,0002.96
2022-05-24 02:27:00,,0826.2,5.00,0.00,29.3,28.2,00.0,38.3,31.0,16.4,0000.0,0007.65,0003.45,0003.00
2022-05-24 02:28:00,,0826.2,5.00,0.00,29.3,28.2,00.0,38.3,31.0,16.5,0000.0,0007.66,0003.47,0003.05
2022-05-24 02:29:00,,0826.2,5.00,0.00,29.3,28.2,00.0,38.3,31.1,16.4,0000.0,0007.60,0003.52,0003.07
2022-05-24 02:30:00,,0826.2,5.00,0.00,29.3,28.2,00.0,38.3,31.1,16.4,0000.0,0007.55,0003.50,0003.07
2022-05-24 02:31:00,,0826.2,4.99,0.00,29.3,28.2,00.0,38.3,31.1,16.4,0000.0,0006.93,0003.52,0003.10
2022-05-24 02:32:00,,0826.2,5.00,0.00,29.3,28.3,00.0,38.3,31.1,16.4,0000.0,0006.89,0003.52,0003.11
2022-05-24 02:33:00,,0826.2,5.01,0.00,29.3,28.3,00.0,38.3,31.1,16.4,0000.0,0006.94,0003.50,0003.10
2022-05-24 02:34:00,,0826.2,5.00,0.00,29.3,28.3,00.0,38.3,31.1,16.6,0000.0,0006.82,0003.47,0003.09
2022-05-24 02:35:00,,0826.2,5.00,0.00,29.3,28.3,00.0,38.3,31.1,16.8,0000.0,0006.73,0003.44,0003.05
2022-05-24 02:36:00,,0826.2,5.00,0.00,29.4,28.3,00.0,38.3,31.2,16.7,0000.0,0005.72,0003.41,0003.02
2022-05-24 02:37:00,,0826.3,5.00,0.00,29.4,28.4,00.0,38.3,31.2,16.7,0000.0,0005.88,0003.42,0003.02
2022-05-24 02:38:00,,0826.3,4.99,0.00,29.4,28.4,00.0,38.3,31.2,16.8,0000.0,0005.86,0003.44,0002.99
2022-05-24 02:39:00,,0826.3,5.02,0.00,29.4,28.4,00.0,38.3,31.2,16.7,0000.0,0005.88,0003.44,0002.97
2022-05-24 02:40:00,,0826.4,4.99,0.00,29.4,28.4,00.0,38.3,31.2,16.8,0000.0,0006.46,0003.46,0003.00
2022-05-24 02:41:00,,0826.3,5.00,0.00,29.4,28.4,00.0,38.3,31.2,16.7,0000.0,0006.90,0003.51,0003.01
2022-05-24 02:42:00,,0826.3,5.00,0.00,29.4,28.4,00.0,38.3,31.2,16.7,0000.0,0007.04,0003.50,0003.02
2022-05-24 02:43:00,,0826.3,5.00,0.00,29.4,28.4,00.0,38.3,31.2,16.8,0000.0,0007.44,0003.51,0003.03
2022-05-24 02:44:00,,0826.3,5.00,0.00,29.4,28.4,00.0,38.3,31.2,16.9,0000.0,0007.20,0003.50,0003.04
2022-05-24 02:45:00,,0826.4,4.99,0.00,29.4,28.4,00.0,38.3,31.3,16.8,0000.0,0007.73,0003.49,0003.05
2022-05-24 02:46:00,,0826.3,5.01,0.00,29.4,28.5,00.0,38.3,31.3,16.5,0000.0,0008.25,0003.54,0003.10
2022-05-24 02:47:00,,0826.4,5.01,0.00,29.4,28.5,00.0,38.4,31.3,16.5,0000.0,0009.00,0003.59,0003.13
2022-05-24 02:48:00,,0826.4,5.00,0.00,29.5,28.5,00.0,38.4,31.3,16.6,0000.0,0009.08,0003.61,0003.14
2022-05-24 02:49:00,,0826.4,4.98,0.00,29.5,28.5,00.0,38.4,31.3,16.7,0000.0,0009.01,0003.60,0003.16
2022-05-24 02:50:00,,0826.4,5.00,0.00,29.5,28.5,00.0,38.4,31.3,16.7,0000.0,0008.99,0003.62,0003.17
2022-05-24 02:51:00,,0826.5,4.99,0.00,29.5,28.5,00.0,38.4,31.3,16.8,0000.0,0008.82,0003.62,0003.17
2022-05-24 02:52:00,,0826.5,5.00,0.00,29.5,28.5,00.0,38.4,31.3,16.8,0000.0,0008.70,0003.62,0003.18
2022-05-24 02:53:00,,0826.5,5.00,0.00,29.5,28.5,00.0,38.4,31.3,16.7,0000.0,0008.62,0003.61,0003.19
2022-05-24 02:54:00,,0826.5,5.00,0.00,29.5,28.5,00.0,38.4,31.3,16.6,0000.0,0008.28,0003.62,0003.21
2022-05-24 02:55:00,,0826.5,5.00,0.00,29.5,28.5,00.0,38.4,31.3,16.5,0000.0,0008.46,0003.67,0003.22
2022-05-24 02:56:00,,0826.5,5.00,0.00,29.5,28.5,00.0,38.4,31.3,16.7,0000.0,0008.16,0003.70,0003.25
2022-05-24 02:57:00,,0826.5,5.01,0.00,29.5,28.5,00.0,38.4,31.3,16.7,0000.0,0007.54,0003.70,0003.26
2022-05-24 02:58:00,,0826.5,5.00,0.00,29.5,28.5,00.0,38.4,31.3,16.7,0000.0,0006.48,0003.69,0003.27
2022-05-24 02:59:00,,0826.5,5.01,0.00,29.5,28.5,00.0,38.4,31.3,16.6,0000.0,0006.30,0003.69,0003.27
